Погода Ордынское

Погода Ордынское : погода сейчас, прогноз погоды и архив. Всё, что Вы хотите узнать о погоде Ордынское!

Хотите узнать прогноз погоды Ордынское? Тогда Вам сюда: Погода Ордынское

Поиск расширенной информации на нашем сайте:

Другие новости

Новости СМИ2

Главная страница сайта

Новости сайта

03.07.2017

Напоминаем, что на нашем специализированном сайте Метеоцентр.Азия вы можете получить высокодетализированные автоматические прогнозы погоды по пунктам России, СНГ и мира в авиационном формате (включающие направление и скорость ветра, видимость, явления погоды, количество и форму облачности, нижнюю и верхнюю границу облачности).

Рекомендуем: Деаэратор молока комплект оборудования по подготовке молока.

Погода Ордынское - сегодня

Время (UTC), дата Ветер
(°,м/с) 
Видим.   Явления Облачность Т
(°С)
Тd
(°С)
f(%) Тe
(°С)
Pmin
(гПа)
dP
(гПа)
Po
(мм)
O2
(г/м3)
Тmin Tmax R s Состояние
почвы
21 18.04.18 тихо ()   20000 м    ясно 
-6.2 -8.6 83 -6  1022.3  -0.6  754  312           
00 19.04.18 050 (СВ) 20000 м    8/0 средняя, верхняя 
[Ac und|Ci sp]
-4.5 -8.9 71 -4  1021.5  -0.7  753  310  -6.3         
03 19.04.18 130 (ЮВ) 20000 м    8/0 средняя, верхняя 
[Ac As|Ci fib]
+2 -10.3 40 +1  1020.5  -0.7  753  302           
06 19.04.18 110 (В) 20000 м    4/0 средняя 
[Ac As]
+4.8 -11.9 29 +4  1018.3  -1.9  751  299           
09 19.04.18 080 (В) 20000 м    6/6 1000 м 
[Cu med, cong]
+6.9 -11.6 25 +6  1016.5  -1.7  750  296           
12 19.04.18 070 (В) 20000 м    8/8 1000 м 
[Cu Sc]
+6.3 -11.6 26 +6  1016.3  -0.2  750  296    +7.5       
15 19.04.18 110 (В) 20000 м    4/4 600 м 
[Sc]
+0.8 -7.9 52 +1  1017.7  751  302           
18 19.04.18 тихо ()   20000 м    ясно 
-3.4 -7.3 74 -3  1018.5  0.6  751  307           
21 19.04.18 тихо ()   20000 м    ясно 
-5.5 -8 83 -6  1019.9  1.2  752  310           
00 20.04.18 200 (Ю) 20000 м    6/0 средняя, верхняя 
[Ac cast|Ci fib]
-3.9 -6.3 83 -3  1021.4  1.6  753  309  -5.7         
03 20.04.18 230 (ЮЗ) 20000 м    3/0 верхняя 
[Ci sp]
+2.5 -6.1 53 +1  1021.6  0.6  754  302           
12 20.04.18 220 (ЮЗ) 4{12}  20000 м    10/0 верхняя 
[Ci fib]
+8.7 -8.3 29 +8  1017.7  -1.2  751  294    +9.6       
15 20.04.18 190 (Ю) 3{11}  20000 м    1/0 средняя 
[Ac As]
+6.8 -7.5 35 +6  1016.6  -1.1  750  296           
18 20.04.18 190 (Ю) 20000 м    10/0 средняя 
[Ac und]
+7.1 -4.8 42 +6  1015  -1.7  749  295           
21 20.04.18 210 (ЮЗ) 4{13}  20000 м    5/0 средняя 
[Ac As]
+6.7 -3.5 48 +5  1014.1  -0.9  748  295           
00 21.04.18 200 (Ю) 20000 м    10/8 1000 м кучево-дожд., средняя 
[Cb calv|Ac und]
+7.3 -3.8 45 +6  1013.6  -0.4  748  294  +6.5         
03 21.04.18 200 (Ю) 20000 м    10/0 средняя 
[Ac As]
+9 -1.6 47 +8  1013.9  0.4  748  292           
06 21.04.18 210 (ЮЗ) 20000 м    10/4 600 м кучево-дожд., средняя 
[Cb calv|Ac As]
+13 -0.1 41 +13  1013.5  -0.2  748  288           
12 21.04.18 250 (З) 3{11}  10 км  слаб. ливневой дождь  10/8 600 м кучево-дожд., средняя 
[Cb calv|Ac As]
+14.4 +2.7 45 +15  1011.5  -0.5  747  285    +16.7  0.0     
15 21.04.18 140 (ЮВ) 10 км  слаб. ливневой дождь  10/10 600 м кучево-дожд. 
[Cb calv]
+11.6 +4.4 61 +12  1012.4  0.7  747  288           
18 21.04.18 160 (Ю) 20000 м  {ливн. осадки}  3/0 верхняя 
[Cs]
+10.5 +1.6 54 +11  1010.8  -1.6  746  289           
21 21.04.18 180 (Ю) 20000 м    ясно 
+9.6 -1.2 47 +9  1008.6  -2.3  744  290           
00 22.04.18 180 (Ю) 20000 м    10/0 верхняя 
[Ci]
+9.4 -2.2 44 +8  1007.2  -1.3  743  290  +8.3    0.0     
03 22.04.18 200 (Ю) 20000 м    10/0 средняя, верхняя 
[Ac As|Cs]
+13.4 -2.7 33 +13  1006.1  -1  743  286           
06 22.04.18 220 (ЮЗ) 4{12}  20000 м    10/5 1000 м средняя 
[Sc|Ac As]
+15 +0.9 38 +15  1006.2  0.3  743  284           
Время (UTC), дата Ветер
(°,м/с) 
Видим.   Явления Облачность Т
(°С)
Тd
(°С)
f(%) Тe
(°С)
Pmin
(гПа)
dP
(гПа)
Po
(мм)
O2
(г/м3)
Тmin Tmax R s Состояние
почвы

Для получения пояснительной информации подведите курсор к названию столбца.

ПОГОДА Ордынское - архив

Всё, что Вы хотите узнать о погоде Ордынское - удобно и подробно!

Выберите нужную дату (начиная с 1 января 2015* года) и нажмите кнопку "Найти".
Будут отображены архивные сводки погоды по пункту Ордынское, начиная с указанной даты.


Отображать данные в формате CSV (для использования в таблицах Excel)


Внимание! Наш архив погоды предназначен исключительно для личного некоммерческого использования в познавательных целях. Если Вам необходимы официальные справки о состоянии погоды (для производственных, юридических, коммерческих и т.п. целей), обращайтесь в органы Росгидромета.

*Примечание: данная дата относится к архиву по метеостанциям СССР (Россия, СНГ, Балтия).
Архив по метеостанциям Зарубежной Европы и Азии (кроме Китая) хранится 10 дней, по другим регионам земного шара (Китай, Африка, Америка, Австралия, Океания) - 1 день.

Ордынское - район местоположения метеостанции


Название, широта, долгота, высота метеостанции:
Ордынское 54.4°ш. 81.9°д. 134 м над ур. моря [Российская Федерация]

Дополнительная информация

В oтличие oт бoльшинства пoгoдных сайтoв мы публикуем пoдрoбную метеoинфoрмацию в детальнoм прoфессиoнальнoм фoрмате.

Характеристики температуры и влажнoсти вoздуха измеряются на высoте 2 м в тени вдали oт зданий и деревьев.
Скoрoсть ветра измеряется на высoте 10 м (на урoвне рoста челoвека скoрoсть ветра ниже в 1.5-2 раза). Если метеoстанция нахoдится в гoрoде или в лесу, тo скoрoсть ветра занижена на 2-4 м/с пo сравнению с oткрытым местoм. Скoрoсть ветра над акватoриями крупных рек и oзёр, а также на вершинах хoлмoв на 2-5 м/с выше, чем в oбычных услoвиях.
Атмoсфернoе давление в разных тoчках местнoсти мoжет значительнo oтличаться oт давления на метеoстанции, в зависимoсти oт услoвий рельефа (при пoдъёме на 10 м давление пoнижается примернo на 1 мм рт.ст.).